Regional Weather Roundup
Issued by NWS

Home | Current Version | Previous Version | Graphics & Text | Print | Product List | Glossary On
Versions: 1 2 3 4 5 6 7 8 9 10 11 12 13 14 15 16 17 18 19 20 21 22 23 24 25 26 27 28 29 30 31 32 33 34 35 36 37 38 39 40 41 42 43 44 45 46 47 48 49 50
425
ASUS43 KBIS 060402
RWRND

NORTH DAKOTA REGIONAL WEATHER ROUNDUP
NATIONAL WEATHER SERVICE BISMARCK ND
1000 PM CST FRI FEB 05 2016

NOTE: "FAIR" INDICATES FEW OR NO CLOUDS BELOW 12,000 FEET WITH NO
SIGNIFICANT WEATHER AND/OR OBSTRUCTIONS TO VISIBILITY.


NDZ001>003-009>011-017-060500-
NORTHWEST NORTH DAKOTA

CITY           SKY/WX    TMP DP  RH WIND       PRES   REMARKS
WILLISTON      CLOUDY    27  22  81 SW8       29.95F WCI  19
MINOT          CLOUDY    31  21  66 SW7       29.97F
MINOT AFB      CLOUDY    27  25  92 CALM      29.96F
$$

NDZ018>021-031>035-040>046-060500-
SOUTHWEST NORTH DAKOTA

CITY           SKY/WX    TMP DP  RH WIND       PRES   REMARKS
BISMARCK       CLEAR     27  22  81 CALM      30.06F
DICKINSON      CLOUDY    30  21  69 SW12      29.99F
GARRISON         N/A     25  21  85 SW3       30.01F
HETTINGER ARPT CLEAR     24  18  77 W5        30.07F WCI  18
$$

NDZ004>008-012>016-024-026-027-054-060500-
NORTHEAST NORTH DAKOTA

CITY           SKY/WX    TMP DP  RH WIND       PRES   REMARKS
GRAND FORKS    CLOUDY    20  15  81 S8        30.07F WCI  10
GRND FRKS AFB  CLOUDY    20  16  84 SW6       30.06F WCI  12
DEVILS LAKE    CLOUDY    23  18  81 SW8       30.03F WCI  14
$$

NDZ022-023-025-028>030-036>039-047>053-060500-
SOUTHEAST NORTH DAKOTA

CITY           SKY/WX    TMP DP  RH WIND       PRES   REMARKS
FARGO          CLEAR     21  17  84 S7        30.11F WCI  12
JAMESTOWN      CLEAR     23  17  78 S7        30.06F WCI  15
$$





USA.gov is the U.S. government's official web portal to all federal, state and local government web resources and services.